Weather History for Clinton-Sherman, OK

Change the Weather History Date:

Monday, January 27, 2014

  Actual Average Record
Temperature  
Mean Temperature 24 °F -  
Max Temperature 33 °F 48 °F 73 °F (2013)
Min Temperature 16 °F 28 °F 10 °F (2009)
Degree Days  
Heating Degree Days 40    
Moisture  
Dew Point -6 °F    
Average Humidity 31    
Maximum Humidity 54    
Minimum Humidity 22    
Precipitation  
Precipitation 0.00 in - - ()
Sea Level Pressure  
Sea Level Pressure 30.37 in    
Wind  
Wind Speed 25 mph (NNE)    
Max Wind Speed 34 mph    
Max Gust Speed 44 mph    
Visibility 10 miles    
Events      
Averages and records for this station are not official NWS values.
T = Trace of Precipitation, MM = Missing Value Source: NWS Daily Summary

Daily Weather History Graph

Daily Weather History Graph

Search for Another Location

Airport:

Trip Planner

Search our weather history database for the weather conditions in past years. The results will help you decide how hot, cold, wet, or windy it might be!

Date:

Astronomy

Jan. 27, 2014 Rise Set
Actual Time 7:39 AM CST 5:59 PM CST
Civil Twilight 7:12 AM CST 6:26 PM CST
Nautical Twilight 6:42 AM CST 6:57 PM CST
Astronomical Twilight 6:11 AM CST 7:27 PM CST
Moon 4:21 AM CST (1/27) 2:49 PM CST (1/27)
Length of Visible Light 11h 14m
Length of Day
10h 20m
Waning Crescent, 14% of the Moon is Illuminated
Jan 27
Waning Crescent
Jan 30
New
Feb 6
First Quarter
Feb 14
Full
Feb 22
Last Quarter

Hourly Weather History & Observations

Time (CST) Temp. Windchill Dew Point Humidity Pressure Visibility Wind Dir Wind Speed Gust Speed Precip Events Conditions
12:53 AM 33.1 °F 18.4 °F 16.0 °F 50% 30.11 in 10.0 mi NNE 33.4 mph 41.4 mph N/A   Clear
1:53 AM 30.0 °F 14.0 °F 10.0 °F 43% 30.14 in 10.0 mi NNE 34.5 mph 43.7 mph N/A   Clear
2:53 AM 27.0 °F 10.8 °F 3.0 °F 36% 30.19 in 10.0 mi NNE 29.9 mph 42.6 mph N/A   Clear
3:53 AM 24.1 °F 8.0 °F -2.9 °F 31% 30.23 in 10.0 mi NNE 25.3 mph 36.8 mph N/A   Clear
4:53 AM 21.0 °F 3.0 °F -11.9 °F 23% 30.27 in 10.0 mi NNE 28.8 mph 38.0 mph N/A   Clear
5:53 AM 19.9 °F 1.8 °F -9.9 °F 26% 30.30 in 10.0 mi NNE 27.6 mph 32.2 mph N/A   Clear
6:53 AM 19.0 °F 1.0 °F -9.0 °F 29% 30.34 in 10.0 mi NNE 26.5 mph 33.4 mph N/A   Clear
7:53 AM 18.0 °F 0.2 °F -9.9 °F 29% 30.38 in 10.0 mi NNE 24.2 mph 32.2 mph N/A   Clear
8:53 AM 21.0 °F 4.6 °F -9.0 °F 26% 30.40 in 10.0 mi NNE 23.0 mph 28.8 mph N/A   Clear
9:53 AM 19.9 °F 2.8 °F -9.0 °F 27% 30.44 in 10.0 mi NNE 24.2 mph 29.9 mph N/A   Clear
10:53 AM 21.0 °F 5.7 °F -9.9 °F 25% 30.45 in 10.0 mi NNE 19.6 mph - N/A   Partly Cloudy
11:53 AM 21.9 °F 5.1 °F -11.0 °F 23% 30.45 in 10.0 mi NNE 25.3 mph 32.2 mph N/A   Partly Cloudy
12:53 PM 24.1 °F 9.8 °F -9.9 °F 22% 30.44 in 10.0 mi North 19.6 mph - N/A   Overcast
1:53 PM 23.0 °F 9.2 °F -11.0 °F 22% 30.42 in 10.0 mi NNE 17.3 mph - N/A   Overcast
2:53 PM 21.9 °F 8.7 °F -9.9 °F 24% 30.40 in 10.0 mi NNE 15.0 mph 23.0 mph N/A   Overcast
3:53 PM 21.9 °F 7.3 °F -9.9 °F 24% 30.41 in 10.0 mi North 18.4 mph - N/A   Overcast
4:53 PM 19.9 °F 5.7 °F -11.0 °F 25% 30.41 in 10.0 mi NNE 16.1 mph - N/A   Overcast
5:53 PM 19.0 °F 4.5 °F -11.0 °F 26% 30.40 in 10.0 mi NNE 16.1 mph - N/A   Overcast
6:53 PM 18.0 °F 3.1 °F -11.0 °F 27% 30.42 in 10.0 mi NNE 16.1 mph - N/A   Overcast
7:53 PM 18.0 °F 2.2 °F -11.0 °F 27% 30.43 in 10.0 mi NNE 18.4 mph - N/A   Overcast
8:53 PM 17.1 °F 0.6 °F -9.9 °F 30% 30.44 in 10.0 mi NNE 19.6 mph - N/A   Overcast
9:53 PM 17.1 °F 2.0 °F -6.0 °F 36% 30.46 in 10.0 mi NNE 16.1 mph - N/A   Overcast
10:53 PM 16.0 °F 0.1 °F 1.0 °F 52% 30.47 in 10.0 mi NNE 17.3 mph - N/A   Overcast
11:53 PM 16.0 °F 2.9 °F 1.9 °F 54% 30.48 in 10.0 mi North 11.5 mph - N/A   Overcast